Weather History for Pascagoula, MS

Change the Weather History Date:

Monday, November 26, 2012

  Actual Average Record
Temperature  
Mean Temperature 54 °F -  
Max Temperature 71 °F 68 °F 81 °F (2001)
Min Temperature 37 °F 50 °F 29 °F (1991)
Degree Days  
Heating Degree Days 11    
Growing Degree Days 4 (Base 50)    
Moisture  
Dew Point 55 °F    
Average Humidity 89    
Maximum Humidity 100    
Minimum Humidity 68    
Precipitation  
Precipitation 0.01 in - - ()
Sea Level Pressure  
Sea Level Pressure 30.14 in    
Wind  
Wind Speed 2 mph (SE)    
Max Wind Speed 10 mph    
Max Gust Speed -    
Visibility 7 miles    
Events Fog , Rain    
Averages and records for this station are not official NWS values.
T = Trace of Precipitation, MM = Missing Value Source: NWS Daily Summary

Daily Weather History Graph

Daily Weather History Graph

Search for Another Location

Airport:

Trip Planner

Search our weather history database for the weather conditions in past years. The results will help you decide how hot, cold, wet, or windy it might be!

Date:

Astronomy

Nov. 26, 2012 Rise Set
Actual Time 6:29 AM CST 4:53 PM CST
Civil Twilight 6:03 AM CST 5:19 PM CST
Nautical Twilight 5:34 AM CST 5:48 PM CST
Astronomical Twilight 5:05 AM CST 6:17 PM CST
Moon 3:42 PM CST (11/26) 4:44 AM CST (11/26)
Length of Visible Light 11h 15m
Length of Day
10h 23m
Waxing Gibbous, 97% of the Moon is Illuminated
Nov 26
Waxing Gibbous
Nov 28
Full
Dec 6
Last Quarter
Dec 13
New
Dec 19
First Quarter

Hourly Weather History & Observations

Time (CST) Temp. Dew Point Humidity Pressure Visibility Wind Dir Wind Speed Gust Speed Precip Events Conditions
12:41 AM 39.2 °F 37.4 °F 93% 30.13 in 1.8 mi Calm Calm - N/A   Clear
12:50 AM 37.4 °F 35.6 °F 93% 30.13 in 3.0 mi Calm Calm - N/A   Clear
12:53 AM 37.9 °F 36.0 °F 93% 30.13 in 6.0 mi Calm Calm - N/A   Clear
1:53 AM 37.9 °F 36.0 °F 93% 30.12 in 10.0 mi Calm Calm - N/A   Clear
2:53 AM 39.0 °F 37.0 °F 93% 30.12 in 10.0 mi Calm Calm - N/A   Clear
3:53 AM 39.0 °F 37.0 °F 93% 30.12 in 10.0 mi Calm Calm - N/A   Clear
4:53 AM 39.0 °F 37.0 °F 93% 30.13 in 10.0 mi Calm Calm - N/A   Clear
5:53 AM 41.0 °F 39.0 °F 93% 30.14 in 10.0 mi Calm Calm - N/A   Clear
6:53 AM 43.0 °F 41.0 °F 93% 30.15 in 10.0 mi Calm Calm - N/A   Clear
7:53 AM 52.0 °F 50.0 °F 93% 30.16 in 10.0 mi Calm Calm - N/A   Clear
8:53 AM 61.0 °F 55.9 °F 83% 30.18 in 10.0 mi Calm Calm - N/A   Clear
9:53 AM 64.9 °F 57.9 °F 78% 30.18 in 10.0 mi SE 3.5 mph - N/A   Clear
10:53 AM 69.1 °F 59.0 °F 70% 30.17 in 10.0 mi SE 8.1 mph - N/A   Scattered Clouds
11:53 AM 71.1 °F 60.1 °F 68% 30.16 in 10.0 mi Variable 6.9 mph - N/A   Mostly Cloudy
12:22 PM 69.8 °F 60.8 °F 73% 30.14 in 10.0 mi SSE 8.1 mph - 0.00 in Rain Light Rain
12:53 PM 70.0 °F 61.0 °F 73% 30.13 in 10.0 mi SSE 10.4 mph - 0.00 in   Overcast
1:53 PM 69.1 °F 61.0 °F 75% 30.12 in 10.0 mi SSE 5.8 mph - N/A   Overcast
2:53 PM 69.1 °F 61.0 °F 75% 30.11 in 10.0 mi SSE 6.9 mph - N/A   Overcast
3:51 PM 68.0 °F 60.8 °F 78% 30.11 in 10.0 mi SSE 6.9 mph - N/A   Overcast
3:53 PM 68.0 °F 60.1 °F 76% 30.12 in 10.0 mi SSE 6.9 mph - N/A   Overcast
4:17 PM 66.2 °F 60.8 °F 83% 30.12 in 10.0 mi SE 3.5 mph - N/A   Overcast
4:53 PM 66.0 °F 60.1 °F 81% 30.12 in 10.0 mi SE 3.5 mph - N/A   Overcast
5:20 PM 66.2 °F 60.8 °F 83% 30.12 in 10.0 mi SSE 3.5 mph - N/A   Overcast
5:53 PM 64.9 °F 60.1 °F 84% 30.14 in 10.0 mi SE 3.5 mph - 0.00 in Rain Light Rain
6:02 PM 64.4 °F 60.8 °F 88% 30.13 in 10.0 mi Calm Calm - 0.00 in   Overcast
6:53 PM 64.0 °F 61.0 °F 90% 30.15 in 4.0 mi SSE 5.8 mph - 0.00 in Rain Light Rain
7:10 PM 62.6 °F 60.8 °F 94% 30.15 in 8.0 mi SSE 3.5 mph - 0.01 in Rain Light Rain
7:53 PM 64.0 °F 62.1 °F 93% 30.15 in 10.0 mi SE 4.6 mph - 0.01 in   Overcast
8:10 PM 64.4 °F 62.6 °F 94% 30.14 in 10.0 mi SE 5.8 mph - N/A   Overcast
8:28 PM 64.4 °F 62.6 °F 94% 30.14 in 10.0 mi SE 4.6 mph - 0.00 in   Overcast
8:53 PM 62.1 °F 61.0 °F 96% 30.14 in 10.0 mi Calm Calm - 0.00 in   Mostly Cloudy
9:13 PM 62.6 °F 60.8 °F 94% 30.13 in 1.5 mi Calm Calm - N/A   Scattered Clouds
9:27 PM 62.6 °F 60.8 °F 94% 30.13 in 3.0 mi Calm Calm - N/A   Mostly Cloudy
9:53 PM 61.0 °F 60.1 °F 97% 30.14 in 3.0 mi Calm Calm - N/A   Mostly Cloudy
9:57 PM 60.8 °F 60.8 °F 100% 30.13 in 1.8 mi Calm Calm - N/A   Mostly Cloudy
10:05 PM 62.6 °F 60.8 °F 94% 30.14 in 3.0 mi SSE 3.5 mph - N/A   Mostly Cloudy
10:20 PM 60.8 °F 60.8 °F 100% 30.13 in 1.8 mi Calm Calm - N/A   Mostly Cloudy
10:28 PM 60.8 °F 59.0 °F 94% 30.13 in 0.2 mi Calm Calm - N/A Fog Fog
10:46 PM 59.0 °F 59.0 °F 100% 30.13 in 0.2 mi Calm Calm - N/A Fog Fog
10:53 PM 59.0 °F 59.0 °F 100% 30.14 in 0.2 mi Calm Calm - N/A Fog Fog
10:59 PM 57.2 °F 57.2 °F 100% 30.14 in 0.5 mi Calm Calm - N/A Fog Fog
11:26 PM 60.8 °F 59.0 °F 94% 30.13 in 1.8 mi Calm Calm - N/A   Overcast
11:39 PM 60.8 °F 59.0 °F 94% 30.12 in 3.0 mi SSE 5.8 mph - N/A   Mostly Cloudy
11:53 PM 63.0 °F 62.1 °F 97% 30.12 in 8.0 mi South 3.5 mph - N/A   Mostly Cloudy